This is the latest recevied weather packets stored in our database for station/object W3AJR. If no packets are shown the sender has not sent any weather packets the latest 10 day(s).
| Time | Temp. | Humidity | Pressure | Rain* | Wind** | Luminosity | Snow |
|---|---|---|---|---|---|---|---|
| 1778251139 | 16.67° C | 42% | 1015.5 hPa | 0 mm | - | 785 W/m² | - |
| 1778250837 | 16.67° C | 44% | 1015.6 hPa | 0 mm | - | 640 W/m² | - |
| 1778250533 | 16.67° C | 45% | 1015.6 hPa | 0 mm | - | 75 W/m² | - |
| 1778250230 | 16.11° C | 45% | 1015.5 hPa | 0 mm | - | 146 W/m² | - |
| 1778249926 | 15.56° C | 48% | 1015.5 hPa | 0 mm | - | 66 W/m² | - |
| 1778249623 | 15.56° C | 46% | 1015.6 hPa | 0 mm | - | 58 W/m² | - |
| 1778249321 | 15° C | 48% | 1015.5 hPa | 0 mm | - | 57 W/m² | - |
| 1778249018 | 15° C | 50% | 1015.6 hPa | 0 mm | - | 57 W/m² | - |
| 1778248713 | 15° C | 48% | 1015.8 hPa | 0 mm | - | 55 W/m² | - |
| 1778248410 | 14.44° C | 53% | 1015.8 hPa | 0 mm | - | 55 W/m² | - |
| 1778248106 | 14.44° C | 55% | 1015.7 hPa | 0 mm | - | 55 W/m² | - |
| 1778247803 | 14.44° C | 51% | 1015.7 hPa | 0 mm | - | 53 W/m² | - |
| 1778247499 | 13.89° C | 52% | 1015.8 hPa | 0 mm | - | 52 W/m² | - |
| 1778247198 | 13.89° C | 55% | 1015.8 hPa | 0 mm | - | 51 W/m² | - |
| 1778246894 | 13.33° C | 58% | 1016 hPa | 0 mm | - | 52 W/m² | - |
| 1778246592 | 12.78° C | 61% | 1015.8 hPa | 0 mm | - | 52 W/m² | - |
| 1778246288 | 12.78° C | 62% | 1015.8 hPa | 0 mm | - | 50 W/m² | - |
| 1778245984 | 12.78° C | 61% | 1016 hPa | 0 mm | - | 50 W/m² | - |
| 1778245681 | 12.78° C | 61% | 1016.1 hPa | 0 mm | - | 49 W/m² | - |
| 1778245378 | 12.78° C | 62% | 1016 hPa | 0 mm | - | 49 W/m² | - |
| 1778245074 | 12.78° C | 64% | 1016.1 hPa | 0 mm | - | 48 W/m² | - |
| 1778244770 | 12.22° C | 68% | 1016.2 hPa | 0 mm | - | 49 W/m² | - |
| 1778244469 | 12.22° C | 63% | 1016 hPa | 0 mm | - | 48 W/m² | - |
| 1778244165 | 11.67° C | 60% | 1016.1 hPa | 0 mm | - | 75 W/m² | - |
| 1778243864 | 11.11° C | 64% | 1016.2 hPa | 0 mm | - | 50 W/m² | - |
* Rain latest hour (hover to see other rain measurements)
** Current wind speed in m/s (hover to see current wind gust speed)